When you browse on this site, cookies collect data to enhance your experience and personalize the content and advertising you see.
Visit our Privacy Policy to learn more. By continuing to use the site, you agree to this use of cookies and data.
  • In Belgium
  • List of Countries
  • For 7 days
  • Water Temperature
  • Satellite Maps
  • Weather Map
  • Weather Widgets
  • user-avatar
    Login

    Hourly Weather Beringen

    Today, 17 November, Saturday

    Time Temperature Precipitation Wind Pressure Humidity
    00:00 +4°C° 0 mm 2 mps 768 mmHg 75%
    01:00 +3°C° 0 mm 3 mps 768 mmHg 77%
    02:00 +3°C° 0 mm 3 mps 768 mmHg 78%
    03:00 +3°C° 0 mm 3 mps 768 mmHg 80%
    04:00 +2°C° 0 mm 3 mps 768 mmHg 81%
    05:00 +2°C° 0 mm 3 mps 768 mmHg 82%
    06:00 +2°C° 0 mm 3 mps 768 mmHg 83%
    07:00 +1°C° 0 mm 4 mps 768 mmHg 79%
    08:00 +3°C° 0 mm 4 mps 768 mmHg 75%
    09:00 +3°C° 0 mm 5 mps 768 mmHg 70%
    10:00 +6°C° 0 mm 5 mps 768 mmHg 65%
    11:00 +7°C° 0 mm 5 mps 768 mmHg 59%
    12:00 +8°C° 0 mm 5 mps 768 mmHg 54%
    13:00 +8°C° 0 mm 5 mps 768 mmHg 55%
    14:00 +8°C° 0 mm 5 mps 768 mmHg 55%
    15:00 +7°C° 0 mm 4 mps 768 mmHg 56%
    16:00 +7°C° 0 mm 4 mps 768 mmHg 57%
    17:00 +6°C° 0 mm 4 mps 768 mmHg 59%
    18:00 +5°C° 0 mm 4 mps 768 mmHg 60%
    19:00 +4°C° 0 mm 4 mps 769 mmHg 60%
    20:00 +4°C° 0 mm 4 mps 769 mmHg 60%
    21:00 +4°C° 0 mm 4 mps 769 mmHg 61%
    22:00 +3°C° 0 mm 4 mps 769 mmHg 62%
    23:00 +3°C° 0 mm 4 mps 769 mmHg 62%

    Tomorrow, 18 November, Sunday

    Time Temperature Precipitation Wind Pressure Humidity
    00:00 +1°C° 0 mm 4 mps 769 mmHg 63%
    01:00 +1°C° 0 mm 4 mps 769 mmHg 64%
    02:00 +1°C° 0 mm 4 mps 769 mmHg 64%
    03:00 0°C° 0 mm 4 mps 769 mmHg 64%
    04:00 0°C° 0 mm 4 mps 769 mmHg 63%
    05:00 0°C° 0 mm 4 mps 768 mmHg 62%
    06:00 0°C° 0 mm 4 mps 768 mmHg 61%
    07:00 0°C° 0 mm 4 mps 768 mmHg 58%
    08:00 +1°C° 0 mm 5 mps 769 mmHg 54%
    09:00 +2°C° 0 mm 5 mps 769 mmHg 51%
    10:00 +3°C° 0 mm 5 mps 768 mmHg 49%
    11:00 +5°C° 0 mm 5 mps 768 mmHg 47%
    12:00 +6°C° 0 mm 5 mps 768 mmHg 45%
    13:00 +6°C° 0 mm 5 mps 767 mmHg 45%
    14:00 +5°C° 0 mm 5 mps 767 mmHg 46%
    15:00 +5°C° 0 mm 4 mps 767 mmHg 46%
    16:00 +3°C° 0 mm 5 mps 767 mmHg 46%
    17:00 +3°C° 0 mm 5 mps 767 mmHg 46%
    18:00 +2°C° 0 mm 5 mps 767 mmHg 46%
    19:00 +1°C° 0 mm 5 mps 767 mmHg 48%
    20:00 +1°C° 0 mm 5 mps 767 mmHg 50%
    21:00 +1°C° 0 mm 5 mps 767 mmHg 52%
    22:00 0°C° 0 mm 5 mps 766 mmHg 60%
    23:00 0°C° 0 mm 4 mps 766 mmHg 68%

    Day after tomorrow, 19 November, Monday

    Time Temperature Precipitation Wind Pressure Humidity
    00:00 0°C° 0 mm 4 mps 766 mmHg 76%
    01:00 0°C° 0 mm 4 mps 765 mmHg 81%
    02:00 0°C° 0 mm 4 mps 765 mmHg 86%
    03:00 0°C° 0 mm 4 mps 765 mmHg 91%
    04:00 +1°C° 0 mm 5 mps 764 mmHg 90%
    05:00 +1°C° 0 mm 5 mps 764 mmHg 89%
    06:00 +2°C° 0 mm 5 mps 764 mmHg 88%
    07:00 +2°C° 0 mm 5 mps 763 mmHg 84%
    08:00 +3°C° 0 mm 6 mps 763 mmHg 81%
    09:00 +3°C° 0 mm 7 mps 763 mmHg 77%
    10:00 +4°C° 0 mm 7 mps 762 mmHg 73%
    11:00 +5°C° 0 mm 7 mps 762 mmHg 68%
    12:00 +6°C° 0 mm 7 mps 761 mmHg 64%
    13:00 +5°C° 0 mm 7 mps 761 mmHg 65%
    14:00 +5°C° 0 mm 6 mps 760 mmHg 66%
    15:00 +5°C° 0 mm 6 mps 760 mmHg 67%
    16:00 +4°C° 0 mm 6 mps 759 mmHg 69%
    17:00 +3°C° 0 mm 6 mps 759 mmHg 71%
    18:00 +3°C° 0 mm 6 mps 759 mmHg 73%
    19:00 +2°C° 0 mm 6 mps 759 mmHg 74%
    20:00 +2°C° 0 mm 5 mps 759 mmHg 75%
    21:00 +2°C° 0 mm 5 mps 759 mmHg 76%
    22:00 +1°C° 0 mm 5 mps 758 mmHg 75%
    23:00 +1°C° 0 mm 5 mps 758 mmHg 75%

    20 November, Tuesday

    Time Temperature Precipitation Wind Pressure Humidity
    00:00 +1°C° 0 mm 5 mps 757 mmHg 75%
    01:00 +1°C° 0 mm 6 mps 757 mmHg 74%
    02:00 -1°C° 0 mm 6 mps 756 mmHg 72%
    03:00 -1°C° 0 mm 6 mps 756 mmHg 70%
    04:00 -1°C° 0 mm 6 mps 755 mmHg 70%
    05:00 -1°C° 0 mm 6 mps 755 mmHg 70%
    06:00 -1°C° 0 mm 7 mps 754 mmHg 69%
    07:00 0°C° 0 mm 7 mps 754 mmHg 68%
    08:00 0°C° 0 mm 7 mps 754 mmHg 66%
    09:00 0°C° 0 mm 7 mps 754 mmHg 65%
    10:00 +2°C° 0 mm 7 mps 753 mmHg 64%
    11:00 +2°C° 0 mm 7 mps 753 mmHg 62%
    12:00 +2°C° 0 mm 7 mps 752 mmHg 61%
    13:00 +2°C° 0 mm 7 mps 752 mmHg 61%
    14:00 +2°C° 0 mm 7 mps 751 mmHg 61%
    15:00 +2°C° 0 mm 6 mps 751 mmHg 62%
    16:00 +1°C° 0 mm 6 mps 751 mmHg 65%
    17:00 +1°C° 0 mm 6 mps 751 mmHg 68%
    18:00 +1°C° 0 mm 5 mps 750 mmHg 71%
    19:00 +1°C° 0.7 mm 5 mps 750 mmHg 75%
    20:00 0°C° 0.7 mm 5 mps 750 mmHg 79%
    21:00 0°C° 0.7 mm 5 mps 750 mmHg 84%
    22:00 0°C° 0.5 mm 5 mps 750 mmHg 86%
    23:00 0°C° 0.5 mm 5 mps 750 mmHg 87%

    21 November, Wednesday

    Time Temperature Precipitation Wind Pressure Humidity
    00:00 0°C° 0.5 mm 5 mps 749 mmHg 89%
    01:00 0°C° 0.2 mm 4 mps 749 mmHg 90%
    02:00 0°C° 0.2 mm 4 mps 749 mmHg 91%
    03:00 0°C° 0.2 mm 4 mps 749 mmHg 91%
    04:00 0°C° 0.3 mm 4 mps 749 mmHg 92%
    05:00 +1°C° 0.3 mm 3 mps 749 mmHg 93%
    06:00 +1°C° 0.3 mm 3 mps 750 mmHg 94%
    07:00 +1°C° 0.2 mm 3 mps 750 mmHg 93%
    08:00 +2°C° 0.2 mm 3 mps 751 mmHg 92%
    09:00 +1°C° 0.2 mm 4 mps 751 mmHg 91%
    10:00 +1°C° 0 mm 4 mps 751 mmHg 88%
    11:00 +1°C° 0 mm 5 mps 752 mmHg 84%
    12:00 +2°C° 0 mm 5 mps 752 mmHg 81%
    13:00 +2°C° 0 mm 5 mps 753 mmHg 81%
    14:00 +1°C° 0 mm 4 mps 753 mmHg 81%
    15:00 +1°C° 0 mm 4 mps 754 mmHg 81%
    16:00 0°C° 0 mm 4 mps 755 mmHg 82%
    17:00 0°C° 0 mm 4 mps 755 mmHg 84%
    18:00 0°C° 0 mm 3 mps 756 mmHg 85%
    19:00 0°C° 0 mm 3 mps 757 mmHg 85%
    20:00 0°C° 0 mm 3 mps 757 mmHg 86%
    21:00 -1°C° 0 mm 3 mps 758 mmHg 86%
    22:00 -1°C° 0 mm 3 mps 758 mmHg 86%
    23:00 -1°C° 0 mm 3 mps 759 mmHg 86%

    22 November, Thursday

    Time Temperature Precipitation Wind Pressure Humidity
    00:00 -1°C° 0 mm 3 mps 759 mmHg 86%
    01:00 -1°C° 0 mm 3 mps 759 mmHg 86%
    02:00 -1°C° 0 mm 3 mps 760 mmHg 86%
    03:00 -2°C° 0 mm 3 mps 760 mmHg 86%
    04:00 -1°C° 0 mm 3 mps 760 mmHg 86%
    05:00 -1°C° 0 mm 3 mps 760 mmHg 86%
    06:00 -1°C° 0 mm 2 mps 761 mmHg 86%
    07:00 -1°C° 0 mm 3 mps 761 mmHg 84%
    08:00 0°C° 0 mm 3 mps 761 mmHg 82%
    09:00 +1°C° 0 mm 3 mps 761 mmHg 79%
    10:00 +3°C° 0 mm 2 mps 761 mmHg 77%
    11:00 +5°C° 0 mm 2 mps 761 mmHg 75%
    12:00 +6°C° 0 mm 2 mps 761 mmHg 73%
    13:00 +5°C° 0 mm 2 mps 761 mmHg 77%
    14:00 +5°C° 0 mm 2 mps 761 mmHg 80%
    15:00 +4°C° 0 mm 2 mps 761 mmHg 84%
    16:00 +4°C° 0.1 mm 2 mps 761 mmHg 86%
    17:00 +4°C° 0.1 mm 2 mps 762 mmHg 87%
    18:00 +2°C° 0.1 mm 3 mps 762 mmHg 89%
    19:00 +3°C° 0.1 mm 2 mps 762 mmHg 90%
    20:00 +3°C° 0.1 mm 2 mps 762 mmHg 90%
    21:00 +3°C° 0.1 mm 2 mps 762 mmHg 91%
    22:00 +3°C° 0 mm 2 mps 762 mmHg 91%
    23:00 +3°C° 0 mm 2 mps 762 mmHg 92%
    Show more